Location: Mound City (historical)
(34.0564°N, 117.2656°W)
Time: 03:28:26
(UTC+00:00)

CBERS-1 - Pass Details

Date: 08 September 2024
Orbit: 766 x 774 km, 98.8° (Epoch: 10 October)

Event Time Altitude Azimuth Distance (km) Brightness Sun altitude
Rises 12:33:16 0° 11° (NNE) 3,239 7.6 -11.9°
Reaches altitude 10° 12:35:35 10° 11° (N) 2,309 6.8 -11.5°
Maximum altitude 12:40:40 82° 284° (WNW) 778 4.0 -10.5°
Drops below altitude 10° 12:45:44 10° 198° (SSW) 2,298 6.2 -9.4°
Sets 12:48:01 0° 197° (SSW) 3,221 6.9 -9.0°
